Terminal Aerodrome Forecast
Issued by NWS Pueblo, CO

Home | Current Version | Previous Version | Text Only | Print | Product List | Glossary On
Versions: 1 2 3 4 5 6 7 8 9 10 11 12 13 14 15 16 17 18 19 20 21 22 23 24 25 26 27 28 29 30 31 32 33 34
000
FTUS45 KPUB 310520
TAFCOS
TAF
KCOS 310520Z 3106/0106 34010KT P6SM SCT030 OVC060
     FM311600 VRB06KT P6SM SCT025 OVC050
     FM312100 36014KT P6SM VCSH SCT020 OVC040
      TEMPO 3123/0102 3SM -SHSN BR BKN020=

USA.gov is the U.S. government's official web portal to all federal, state and local government web resources and services.